Other Surface Observations
Issued by NWS Charleston, SC

Home | Current Version | Previous Version | Text Only | Print | Product List | Glossary On
Versions: 1 2 3 4 5 6 7 8 9 10 11 12 13 14 15 16 17 18 19 20 21 22 23 24 25 26 27 28 29 30 31 32 33 34 35 36 37 38 39 40 41 42 43 44 45 46 47 48 49 50
000
SXUS52 KCHS 070028
OSOCHS

MARINE OBSERVATIONS
NATIONAL WEATHER SERVICE CHARLESTON SC
800 PM EDT FRI MAY 06 2016

...DOWNTOWN CHARLESTON AND HARBOR...

CITY           SKY/WX    TMP DP  RH WIND       PRES   REMARKS
WATERFRONT PRK   N/A     67  49  52 W6        29.80R

...LAKE MOULTRIE...

CITY           SKY/WX    TMP DP  RH WIND       PRES   REMARKS
PINOPOLIS        N/A     66  54  63 NW16      29.75R

...LAKE AND SUPPLEMENTAL COASTAL OBSERVATIONS...

STATION/POSITION TIME  TEMP    WIND        PRES    WAVE   SWELL
                       AIR SEA DIR/SP/G            HT/PER HT/PER/DIR
                 (UTC) (F)     (DEG/KT/KT) (MB)    (FT/S) (FT/S/D)
FORT PULASKI     0000   69 71              1010.7R
SAPELO ISLAND    0000   71     270/  7     1011.0R
WINYAH BAY       2300   67     290/  5     1008.0S
LAKE MURRAY      2300   67     220/  4/  7 1009.1R
ACE BASIN NERRS  NOT AVBL


...C-MAN AND BUOY OBSERVATIONS...

STATION/POSITION TIME  TEMP    WIND        PRES    WAVE   SWELL
                       AIR SEA DIR/SP/G            HT/PER HT/PER/DIR
                 (UTC) (F)     (DEG/KT/KT) (MB)    (FT/S) (FT/S/D)
BUOY 41004       2350   69 73  260/ 12/ 16 1008.9R   3/ 4   2/10
BUOY 41008       NOT AVBL
FOLLY BEACH CMAN 0000   65     280/  5/  8 1010.2R
CAPERS NS BUOY   2308   69 70  310/ 14/ 17 1008.7R
FRIPP NS BUOY    0008   68 69  310/  8/ 12 1009.7R
5E ST. MARYS GA  2321      71                N/A     1/10


STATION/POSITION TIME  TEMP    WIND        PRES    WAVE   SWELL
                       AIR SEA DIR/SP/G            HT/PER HT/PER/DIR
                 (UTC) (F)     (DEG/KT/KT) (MB)    (FT/S) (FT/S/D)
FRYING PAN BUOY  0000   67 72  270/ 12/ 16 1008.6R
BUOY 41025       2350   63 74  280/ 10/ 14 1007.7R   5/ 9   5/120/ 9
CAPE LOOKOUT NC  0000   63     290/  9/ 11 1007.8R
BUOY 41002       2350   69 73  290/ 12/ 16 1008.8R   8/ 8   7/280/ 8
BUOY 41010       2320   70 79  310/ 10/ 14 1010.7R
ST AUGUSTINE FL  0000   66 71   90/  5/  6 1012.2R

$$




USA.gov is the U.S. government's official web portal to all federal, state and local government web resources and services.